Theta_e
308 308 308 308 308 309 309 309 309 309 309 310 309 310 310 310 310 310 310 310 310 311 310 310 311 310 310 310 310 310 309 310 313 316 316 315 314 314 313 310 307 305 309 315 317 318 319 319 320 318 316 315 313 314 316 316 317 317 316 315 312 313 314 316 317 316 316 318 318 318 318 317 322 325 327 329 328 329 332 336 339 339 341 342 343 347 350 350
308 308 308 308 308 309 308 308 309 309 309 309 309 309 310 310 310 310 310 310 310 311 311 311 310 310 310 310 310 309 309 312 315 316 316 315 312 311 310 307 306 305 309 315 317 319 319 318 319 318 316 314 313 313 315 317 316 316 316 314 313 315 316 317 318 317 317 317 318 318 318 318 319 323 327 327 329 332 334 337 339 340 341 340 343 347 349 349
308 308 308 308 308 308 308 308 308 309 309 309 309 309 310 310 311 311 310 310 311 311 311 311 310 310 310 309 309 307 311 315 316 318 318 316 314 311 307 306 306 305 308 314 316 318 318 317 318 317 314 314 314 313 314 317 315 315 316 314 314 316 317 318 317 317 317 317 318 317 318 318 318 322 326 328 331 334 335 336 336 339 339 340 343 347 349 348
307 308 308 308 308 308 308 308 308 308 309 309 309 309 310 310 311 311 310 311 311 310 311 311 311 310 309 309 307 308 314 317 318 321 319 317 314 311 307 305 306 305 308 315 316 317 317 316 318 316 314 314 313 313 315 316 315 315 314 314 316 317 317 317 317 316 317 317 317 317 317 318 318 320 324 327 330 332 333 333 333 336 340 342 344 345 348 348
307 307 308 308 308 308 308 308 308 308 308 308 308 309 309 310 310 311 311 311 311 310 311 310 310 310 309 308 307 311 316 316 320 323 317 315 314 310 308 305 306 306 310 315 315 315 316 316 316 315 313 313 314 314 315 316 316 316 315 314 316 317 316 317 317 316 316 317 316 316 317 318 317 318 322 325 327 328 328 329 332 335 338 342 344 343 346 347
307 307 307 307 308 308 308 308 308 307 308 308 308 309 309 309 310 310 311 311 311 310 310 310 310 310 308 306 307 313 316 315 319 320 315 315 313 309 307 305 306 309 312 315 314 314 315 314 314 314 313 313 313 314 314 315 316 316 316 315 316 316 317 316 316 316 315 315 316 316 317 317 317 317 320 324 324 326 328 327 332 336 336 340 344 344 345 346
306 307 307 307 307 308 308 308 308 307 308 308 308 308 309 309 309 310 311 310 310 310 310 310 310 309 307 307 311 316 316 315 319 319 314 314 312 309 306 306 307 311 314 314 313 314 313 314 314 314 313 313 313 313 315 315 315 315 315 315 316 316 316 317 316 316 315 315 316 317 317 316 316 317 319 321 323 325 328 326 331 336 335 337 342 343 345 345
306 306 307 307 307 307 307 307 308 308 308 308 308 308 308 309 309 310 310 310 310 309 310 310 310 309 307 310 316 318 317 317 323 319 312 315 312 306 306 308 310 313 315 314 313 313 312 313 313 314 312 312 313 314 314 315 314 315 315 316 316 316 316 315 316 316 315 315 316 316 316 316 317 317 318 319 323 325 326 324 327 337 336 336 342 344 345 344
306 306 307 307 307 307 307 307 307 308 307 308 308 308 308 308 308 309 308 309 309 309 309 310 310 309 308 312 317 317 317 318 323 320 314 315 311 306 308 311 311 314 315 313 313 312 312 312 312 313 312 313 313 313 314 314 313 315 316 315 315 316 317 315 315 315 315 315 316 316 316 316 317 317 317 318 321 324 325 322 326 336 336 338 342 344 345 344
306 306 307 307 307 307 307 307 307 307 307 307 307 308 307 307 307 307 308 308 309 309 309 309 310 308 309 316 317 316 317 317 321 322 320 315 312 310 312 314 313 313 315 313 313 313 313 312 313 313 312 313 313 313 314 314 315 316 316 315 314 315 316 316 315 315 315 315 315 316 315 316 317 316 316 317 321 323 323 323 325 331 334 336 339 343 345 344
306 307 307 307 307 306 307 307 307 307 307 307 307 307 307 307 306 307 307 308 308 309 309 310 308 307 313 316 316 315 315 317 319 322 322 316 314 314 315 315 313 314 315 313 313 313 312 313 314 313 313 313 313 314 314 314 315 315 315 315 315 314 316 316 315 315 315 315 315 315 316 316 316 316 316 318 319 322 322 322 325 329 333 334 336 340 343 344
306 307 307 307 306 306 306 306 306 307 307 307 306 306 306 306 306 305 307 307 308 308 308 309 307 309 315 315 315 315 313 315 317 321 322 317 315 315 317 316 313 314 314 313 314 313 314 314 313 313 313 313 312 314 314 314 315 315 314 314 314 315 315 315 315 315 314 315 315 315 314 315 316 316 316 318 320 321 321 322 325 329 332 333 333 337 341 344
306 306 306 306 306 306 306 306 306 306 307 306 305 305 306 306 306 305 306 306 307 308 309 309 308 311 316 316 317 316 314 313 315 319 321 319 316 315 315 314 314 314 313 314 314 313 313 313 313 313 314 314 313 314 314 314 314 314 314 313 314 313 313 315 315 315 315 314 316 315 310 312 316 316 316 319 321 322 321 323 325 329 333 334 334 337 341 344
305 306 306 306 306 306 306 306 306 306 306 306 305 304 306 306 306 305 305 306 307 308 310 309 309 314 317 318 318 315 314 313 314 316 318 319 317 314 314 314 314 314 314 315 314 313 313 312 313 312 313 313 314 314 313 313 313 313 313 312 313 310 311 315 315 314 315 314 316 315 309 311 316 316 317 318 321 322 321 322 324 329 333 336 337 338 341 343
305 306 305 305 305 306 306 306 306 306 306 305 304 302 305 306 306 306 305 306 308 308 309 309 310 316 319 320 318 316 314 314 315 315 316 318 317 315 314 313 314 314 314 315 314 314 313 312 312 312 313 314 314 315 314 314 313 313 311 310 311 309 310 316 316 315 315 314 316 314 309 312 317 317 317 318 320 321 321 322 324 329 333 335 338 340 342 343
305 305 305 305 304 305 306 306 306 306 305 304 302 301 304 307 307 306 307 308 309 309 309 313 316 317 319 319 317 317 315 314 314 313 316 317 316 316 314 313 313 313 314 314 314 314 313 312 312 312 314 314 314 314 314 312 311 313 311 308 310 309 309 314 316 316 315 315 315 313 311 312 315 317 318 318 319 320 320 320 324 329 335 336 338 341 342 342
305 305 305 305 305 304 305 305 306 306 305 303 301 301 305 308 308 308 308 309 310 311 312 317 318 318 319 319 315 315 315 315 315 315 316 317 316 315 314 313 313 313 314 313 313 312 312 312 312 313 314 314 314 313 312 309 308 311 311 309 310 311 309 310 313 315 315 315 314 314 313 314 316 318 318 319 319 320 320 320 324 329 334 338 338 340 340 341
305 304 305 305 305 304 304 305 305 305 304 301 302 305 307 308 309 309 311 312 313 314 314 317 317 317 319 318 314 314 316 316 316 317 317 316 315 314 313 313 312 313 312 312 311 311 311 311 312 314 314 315 315 313 310 309 310 310 310 309 309 312 310 310 313 315 316 314 314 315 314 314 316 319 318 319 320 320 320 320 325 330 334 338 339 339 339 340
305 305 305 305 305 305 305 305 305 304 302 300 307 310 309 310 310 311 314 315 316 317 319 319 317 318 318 315 314 315 316 316 316 317 317 315 314 313 313 313 313 312 311 310 310 310 311 313 314 313 313 314 314 313 311 312 313 312 312 311 309 309 310 313 315 316 316 314 314 314 314 314 316 317 318 319 320 320 320 320 326 331 334 337 338 337 338 338
304 304 304 304 305 305 305 305 304 304 301 301 309 314 315 318 317 318 318 316 317 318 317 316 317 317 315 315 315 315 315 315 315 316 317 314 312 312 312 312 312 311 311 311 310 312 312 313 314 314 314 315 315 315 315 315 316 314 314 313 310 310 310 315 316 316 316 314 314 315 315 315 315 316 317 318 318 320 321 321 326 332 334 335 336 335 337 338
303 303 303 304 304 304 305 304 303 303 299 301 309 314 314 315 313 315 316 314 316 317 315 315 316 315 315 316 317 316 315 314 314 316 317 313 312 312 311 311 311 310 311 311 312 314 313 313 315 315 315 317 316 316 317 317 317 316 314 312 311 310 311 315 316 316 317 315 314 315 314 315 316 317 317 318 318 320 320 320 325 331 333 334 335 335 336 337
302 302 302 303 303 303 303 303 302 301 300 303 310 313 311 312 312 313 312 311 313 315 315 316 315 315 315 316 317 317 315 314 314 315 316 313 311 311 310 310 311 310 312 313 313 315 315 313 315 316 316 316 317 317 317 317 318 316 314 312 310 311 312 314 316 317 317 315 315 316 314 315 317 317 318 318 319 320 321 320 325 331 331 333 336 336 335 334
301 301 301 303 303 301 301 302 302 301 302 307 312 312 311 312 312 311 312 312 313 314 314 315 315 315 315 315 316 317 315 314 315 315 315 313 312 311 311 310 310 311 312 314 316 315 314 313 315 317 316 317 318 317 317 317 317 316 314 310 309 312 312 310 314 318 317 317 316 316 316 316 319 319 318 319 319 322 321 319 325 329 328 332 335 336 336 332
301 302 302 303 302 302 300 300 301 303 307 311 312 312 310 311 311 311 314 315 314 315 315 315 315 315 315 316 316 316 314 315 316 316 315 313 312 312 311 311 311 312 313 314 316 315 314 314 315 316 316 317 317 317 316 314 313 314 315 312 310 312 312 311 315 318 318 317 317 317 315 316 319 319 318 319 320 322 321 319 322 326 328 333 337 335 332 331
303 303 303 303 303 302 299 300 305 310 313 313 312 311 309 310 311 311 315 316 315 316 317 316 315 316 317 317 317 316 314 314 315 316 316 314 312 312 312 313 312 312 314 314 315 314 314 315 316 316 315 315 315 315 315 314 312 312 314 314 313 314 314 315 317 318 315 314 316 317 312 312 316 317 317 319 319 320 320 321 324 328 332 334 335 336 334 332
303 303 303 303 303 301 299 307 314 312 311 310 310 311 311 311 311 312 317 318 315 316 318 317 317 317 317 318 317 315 314 314 314 316 318 316 314 313 312 312 312 314 315 315 314 314 315 316 315 315 315 313 314 315 315 315 312 310 314 315 314 316 315 315 316 315 312 313 317 316 311 309 312 315 318 319 320 318 321 324 325 330 335 334 332 334 335 334
303 303 303 303 303 302 304 311 311 307 307 308 309 310 311 310 311 314 319 317 315 316 317 316 318 317 317 318 316 315 315 315 315 316 317 315 315 313 312 313 313 313 315 315 313 313 315 315 314 314 315 313 312 314 315 316 312 311 316 315 314 316 315 316 316 314 313 314 318 317 313 310 309 314 320 319 319 318 322 324 324 327 332 334 332 331 332 332
303 304 303 304 303 302 305 308 308 306 307 308 309 309 309 310 313 318 319 317 316 315 318 317 316 316 317 317 316 314 316 315 315 317 317 316 315 312 312 313 314 313 314 315 312 313 315 315 314 313 314 313 312 313 315 315 313 313 316 316 314 315 315 316 315 314 314 314 313 316 315 311 309 314 320 319 317 318 320 322 323 325 327 329 331 330 331 332
303 303 304 303 302 302 304 305 308 308 306 307 308 307 308 310 315 319 317 317 316 313 316 316 314 315 316 316 315 314 315 315 315 316 316 316 314 313 312 313 314 313 313 314 313 315 315 314 314 313 312 314 314 314 315 315 314 315 316 316 314 314 313 315 315 312 312 313 312 314 315 310 309 313 317 317 316 316 318 321 321 323 326 328 330 331 331 331
303 303 303 302 302 305 309 308 309 308 306 308 308 308 309 311 316 316 314 315 313 312 315 314 314 316 316 316 315 315 315 316 316 316 316 315 313 313 312 313 313 313 313 313 313 314 315 314 314 313 313 314 315 315 316 314 314 315 316 315 314 314 314 315 315 312 311 312 312 313 314 311 309 312 314 316 316 317 318 320 320 321 326 327 329 330 331 332
302 302 302 302 304 308 311 311 311 309 308 310 309 309 311 313 315 314 314 314 311 313 315 313 315 316 316 316 315 315 315 316 316 316 315 314 313 312 312 312 312 313 313 313 312 313 314 314 313 314 313 314 315 315 315 315 314 316 316 314 313 313 314 313 312 312 312 312 311 313 315 312 310 314 318 318 321 324 321 320 322 323 328 329 329 330 330 331
302 301 302 302 303 306 308 309 311 310 310 311 310 311 312 314 314 313 314 312 310 313 314 314 315 316 316 316 315 315 315 316 315 315 315 313 312 312 311 312 312 312 312 311 312 312 313 314 313 313 314 314 315 314 313 314 314 316 315 313 311 311 312 312 311 311 312 312 313 313 314 312 312 318 323 322 323 326 326 324 324 323 327 330 329 329 329 330
303 302 302 303 303 305 309 310 311 311 312 311 310 311 312 313 313 313 312 310 311 313 312 314 316 315 316 316 315 315 314 316 315 315 315 312 312 312 311 313 312 312 312 312 311 310 312 314 313 313 314 314 315 313 311 312 313 315 313 312 311 312 314 313 312 311 311 311 313 315 315 311 312 319 325 325 325 327 327 326 324 323 325 326 326 328 328 329
304 303 306 308 306 308 311 311 312 314 313 311 309 310 312 313 313 312 312 311 311 312 312 314 314 314 315 315 315 315 314 316 316 315 315 312 312 313 311 313 313 313 313 312 312 310 311 313 313 314 313 313 314 313 314 315 313 314 314 314 313 312 313 313 312 311 311 311 313 315 315 311 312 320 326 325 325 327 327 326 325 324 325 325 323 326 327 327
306 305 308 312 311 311 313 312 313 314 313 310 308 309 311 313 312 311 311 311 309 310 311 312 313 313 313 314 316 316 315 316 316 315 315 313 313 313 313 312 313 314 314 313 313 312 311 312 313 314 314 314 314 313 316 315 314 315 315 314 312 312 313 311 312 313 311 312 314 313 313 314 317 322 324 323 324 326 326 326 326 325 325 325 324 326 327 328
311 310 310 314 314 313 313 312 313 314 312 308 306 308 310 311 312 310 310 311 310 310 309 310 310 310 311 313 315 316 315 317 316 315 315 314 314 314 314 313 313 314 313 314 314 313 311 312 315 314 314 314 314 314 315 314 314 315 313 311 314 316 315 311 312 314 312 312 313 312 313 316 320 322 322 322 323 325 326 328 328 327 328 329 327 326 328 329
315 314 312 314 312 310 311 311 313 314 311 307 306 307 308 310 311 310 309 310 311 311 309 309 309 309 309 311 314 315 315 316 315 316 317 317 315 315 315 314 314 314 314 314 316 316 313 312 315 315 313 315 315 314 315 315 315 315 312 313 315 316 316 313 312 313 312 312 311 311 313 314 316 320 322 322 323 325 326 328 329 330 331 331 331 330 330 330
314 314 313 313 310 310 311 311 314 314 309 306 306 307 307 308 309 310 310 310 311 311 310 309 309 309 309 310 313 315 316 314 314 317 317 316 316 316 315 316 314 314 314 313 315 317 315 312 314 314 314 315 315 314 314 314 315 315 315 316 315 313 313 313 312 312 313 312 311 311 311 312 314 317 319 322 325 327 327 328 328 330 331 331 331 331 331 330
314 313 313 312 309 310 312 313 314 313 308 305 305 306 306 306 308 309 309 310 310 310 309 309 309 310 310 311 312 315 316 315 314 316 315 315 317 317 315 316 316 315 315 314 314 317 317 314 313 315 315 315 314 313 311 312 314 314 315 315 316 314 313 312 312 312 312 312 312 311 311 315 319 320 321 324 326 328 329 329 329 330 330 330 330 330 329 329
315 313 312 311 310 310 312 314 314 312 307 305 305 305 305 305 307 309 309 309 310 310 309 308 309 310 311 312 311 314 317 316 315 316 317 316 317 316 315 315 316 316 316 315 315 316 317 316 315 315 315 313 313 312 312 312 312 313 312 313 314 314 314 314 313 312 311 311 313 312 312 319 323 322 323 326 326 327 329 330 330 330 330 330 329 330 329 329
314 312 311 311 310 310 312 314 313 310 308 306 305 305 305 306 307 308 309 309 308 309 308 307 309 311 310 311 311 313 315 316 315 317 318 318 319 317 316 315 315 315 316 315 316 316 316 316 316 315 314 312 312 314 314 314 314 313 312 312 312 313 313 313 313 314 312 311 312 311 315 322 323 320 323 324 323 326 329 328 329 328 328 328 328 328 328 328
312 311 311 311 311 311 312 312 312 310 309 307 306 305 306 307 308 308 308 308 308 308 308 308 309 310 310 311 310 311 313 313 315 318 318 319 320 318 315 314 314 314 315 315 315 317 318 317 316 315 314 315 315 314 314 314 314 314 314 314 315 314 312 311 311 313 311 311 312 310 315 323 321 319 323 323 323 327 327 328 328 326 326 326 326 325 325 325
311 310 310 311 311 311 312 311 311 309 308 307 307 306 307 307 307 307 307 307 308 308 307 308 308 309 309 309 309 310 311 311 313 315 316 318 319 317 315 313 313 313 314 315 316 317 318 317 317 316 316 315 314 314 314 314 314 314 313 314 315 314 314 313 312 313 311 311 312 310 314 322 321 320 323 323 325 327 327 327 326 325 325 324 324 325 324 324
309 310 310 311 311 311 312 311 309 309 308 308 309 308 307 306 306 306 306 306 307 308 307 307 308 308 307 308 309 310 310 310 311 313 315 317 317 316 314 313 314 314 314 315 316 316 315 315 316 316 316 316 315 314 314 313 313 313 313 314 315 314 316 316 315 315 313 312 312 311 317 324 322 321 323 323 325 326 325 325 325 324 324 323 323 324 323 324
309 310 309 310 311 311 311 310 311 311 310 310 310 309 309 307 307 307 307 308 308 308 308 308 308 308 308 309 309 309 309 310 312 313 314 316 316 315 314 315 315 314 315 318 318 315 315 316 316 316 318 319 318 315 314 313 313 314 313 314 315 314 315 316 314 313 313 314 312 313 321 324 322 321 322 322 324 325 324 324 323 323 323 322 322 322 322 322
308 308 307 309 310 310 310 310 310 311 311 310 309 310 309 308 308 307 307 308 308 307 309 308 308 309 309 308 309 309 308 309 310 312 314 315 314 314 314 315 314 315 318 322 319 314 316 317 317 317 317 317 316 314 313 313 314 314 313 312 314 315 316 317 314 311 314 315 312 315 323 324 322 321 321 321 322 324 324 323 322 322 322 321 321 321 320 320
307 307 306 307 309 309 310 309 309 310 310 310 309 310 310 309 309 308 307 307 308 308 308 308 308 309 309 309 311 310 309 309 310 310 311 314 314 314 314 314 316 320 321 320 316 315 316 316 317 318 316 315 314 313 313 313 313 313 313 314 315 316 317 317 315 315 317 315 314 320 326 324 322 322 321 320 321 322 322 322 321 321 320 320 319 318 318 317
306 306 307 308 308 308 309 309 308 309 309 309 309 311 311 309 309 309 308 308 308 308 308 309 308 308 308 310 311 311 311 311 311 312 313 314 313 313 313 313 316 320 320 316 315 316 317 317 317 318 317 315 315 314 314 313 312 312 314 316 317 317 319 319 319 321 321 317 318 324 326 324 321 320 319 319 320 320 320 320 320 319 319 318 317 316 315 315
307 307 307 308 308 308 309 308 308 308 308 309 310 310 311 311 309 308 308 309 310 309 309 309 309 307 308 309 310 314 315 313 314 316 317 317 316 315 314 313 314 316 317 316 317 316 316 317 318 317 317 316 314 314 314 313 313 313 314 314 316 318 320 321 322 324 324 323 324 325 324 321 319 317 317 317 316 316 316 316 317 316 315 315 314 313 313 312
306 307 307 308 307 307 308 308 308 308 308 308 309 309 309 309 309 307 306 308 310 309 309 310 310 309 309 310 311 313 314 314 316 316 316 317 317 316 315 314 313 314 315 315 317 318 317 318 318 316 315 315 314 314 314 313 313 314 314 314 316 317 318 320 323 324 325 325 324 321 320 319 316 315 315 314 313 313 313 313 313 313 312 312 311 311 310 310
306 306 307 308 305 305 307 307 307 307 307 306 306 307 308 307 307 307 306 306 307 307 307 309 310 310 310 310 310 309 309 310 312 312 311 313 313 313 313 312 313 315 316 316 318 319 318 317 317 316 315 315 314 313 313 313 313 314 314 314 316 317 317 319 321 323 323 323 321 319 318 317 314 314 313 312 312 311 311 311 311 309 309 309 308 309 308 308
306 306 307 307 304 304 305 306 306 306 305 305 305 306 306 305 305 306 307 306 306 306 306 307 310 311 309 308 307 307 307 308 308 308 308 309 309 310 310 310 311 314 316 317 318 317 316 316 315 315 315 315 314 314 314 314 314 315 315 315 315 315 316 317 318 318 320 321 320 319 318 315 313 312 312 312 310 309 308 308 308 308 307 307 307 307 306 306
Wind_Speed
12 12 12 11 11 12 12 12 12 11 12 12 12 12 11 11 11 11 11 11 11 12 12 12 13 12 12 12 13 13 15 16 15 13 17 16 11 14 15 10 12 18 20 18 19 19 18 17 16 17 13 10 9 9 10 10 8 7 6 8 8 9 9 7 5 4 3 2 4 3 2 8 4 7 4 5 11 8 10 6 5 9 10 12 15 18 22 22
12 12 12 12 11 12 12 12 12 11 12 12 12 12 11 11 11 12 12 11 11 12 12 12 12 13 12 12 12 12 14 16 17 18 21 19 14 13 15 11 12 20 22 18 20 21 17 16 16 16 12 9 9 10 10 9 9 8 7 9 8 10 8 5 5 3 2 3 4 2 3 5 4 2 4 7 11 10 10 8 7 10 13 13 17 20 21 21
12 12 13 13 12 12 12 12 12 12 12 12 12 13 12 11 12 12 12 12 12 12 12 12 12 13 12 12 12 11 13 17 17 14 11 11 15 15 13 11 13 21 24 18 19 21 17 16 17 15 11 9 9 11 11 9 9 9 8 9 9 12 10 2 3 5 3 4 2 1 1 4 3 1 4 7 8 10 9 9 10 9 12 15 17 19 20 19
12 12 13 13 13 12 12 12 12 12 12 12 12 12 13 12 12 12 11 12 12 12 12 12 13 13 12 12 11 10 13 16 8 2 4 2 8 14 15 14 14 21 24 17 15 19 18 16 16 14 12 10 9 11 11 9 8 8 9 10 10 11 9 3 3 6 3 3 5 3 4 7 3 1 5 9 8 9 11 11 11 10 11 14 17 17 17 17
12 12 12 12 13 12 12 12 11 11 12 12 12 12 12 12 12 12 12 12 12 12 12 13 13 12 13 12 10 10 12 7 3 9 6 1 3 11 15 15 16 21 21 15 15 18 18 16 14 13 11 10 11 11 11 12 10 8 12 14 14 9 6 5 3 2 2 3 5 5 7 4 1 5 7 9 9 7 10 12 12 15 11 11 15 15 15 14
12 12 12 12 12 12 12 12 12 11 12 12 11 12 12 12 12 12 12 12 12 12 12 12 12 12 12 10 10 10 9 3 4 6 4 2 2 10 12 15 17 20 19 14 15 17 16 15 14 12 11 11 13 12 11 13 11 9 12 13 15 13 7 6 2 2 3 7 8 7 5 4 5 8 6 9 8 6 6 7 10 16 12 11 14 15 15 14
12 12 12 12 12 12 12 12 12 12 12 11 11 11 11 12 12 12 12 12 12 12 12 12 12 12 11 11 10 9 10 8 0 6 1 2 4 10 11 15 19 18 17 14 14 15 14 15 14 12 12 11 13 14 12 13 14 12 12 12 14 14 10 9 4 3 6 8 8 6 6 4 10 7 5 10 6 6 4 4 9 15 12 11 13 15 14 15
12 12 12 12 12 12 12 12 12 12 12 11 11 11 11 11 11 12 11 11 11 11 11 11 12 11 11 11 10 8 9 5 5 5 2 2 8 11 12 15 19 18 16 15 15 14 13 15 15 12 12 12 12 13 12 14 15 14 14 13 11 9 10 11 9 8 8 8 8 8 9 8 11 6 4 10 7 7 5 5 7 14 13 12 13 14 14 14
12 12 12 12 12 12 12 12 12 12 12 12 11 11 11 11 11 12 11 11 11 11 11 11 11 9 9 9 10 8 3 4 8 3 3 7 11 13 15 16 19 18 15 15 15 15 13 13 15 13 12 12 13 13 13 14 12 12 16 16 11 9 9 11 12 13 10 7 8 11 11 11 10 6 6 10 7 9 9 8 7 11 12 10 10 11 12 13
13 13 12 12 12 12 12 12 12 12 12 12 11 10 11 11 11 11 11 11 11 11 10 10 10 7 8 10 11 7 3 6 5 5 6 11 14 16 16 15 18 17 14 14 14 14 13 11 12 13 12 11 12 12 13 14 10 8 12 16 16 12 10 10 13 14 11 10 11 11 12 13 10 5 8 11 8 9 11 10 9 11 11 9 8 9 10 12
13 13 13 13 12 12 12 12 12 12 12 13 12 11 11 11 11 10 11 11 11 11 9 10 9 7 11 10 10 6 5 4 2 6 9 14 16 16 15 13 15 16 14 12 13 13 13 11 8 9 9 9 11 11 12 13 11 9 9 12 17 15 11 12 13 13 11 11 12 11 12 14 11 9 13 12 11 11 12 11 11 11 11 11 8 9 9 10
13 13 13 13 13 13 13 12 12 12 12 13 12 11 11 11 11 11 10 10 10 8 8 10 6 6 11 9 12 9 1 2 3 5 9 13 14 14 12 10 12 14 13 11 11 12 13 10 8 10 7 5 10 9 9 14 13 13 10 9 13 15 14 15 14 13 12 10 11 12 12 15 13 12 16 11 11 10 11 10 11 11 10 12 10 9 10 10
14 14 14 14 13 13 13 13 12 12 12 12 12 11 11 11 10 10 10 9 8 7 8 8 5 8 10 8 10 8 3 4 5 6 8 12 12 12 10 10 11 12 12 10 10 11 12 9 9 13 7 5 9 3 3 11 12 12 11 9 10 12 14 16 16 15 15 12 12 12 9 13 15 15 17 11 10 11 10 10 10 10 10 12 12 11 11 11
15 14 14 14 14 14 14 13 13 13 12 13 12 11 11 11 10 10 9 8 6 7 8 6 6 8 8 9 11 7 7 5 7 9 10 11 12 11 10 10 11 11 10 10 10 9 10 10 11 13 9 8 8 1 2 8 9 11 11 9 9 9 10 15 18 17 16 12 12 12 8 11 14 17 20 14 13 13 11 11 11 10 9 10 11 11 11 11
15 15 14 14 14 14 14 13 13 13 13 13 13 13 11 11 11 10 8 7 7 8 7 6 8 7 7 12 11 7 9 9 11 14 13 13 12 11 11 12 12 11 9 10 8 7 9 11 11 10 9 11 10 4 7 9 7 10 10 9 10 9 11 14 18 18 16 13 14 13 8 9 14 17 22 16 13 15 13 13 11 10 10 10 11 10 10 10
15 15 15 15 14 14 14 14 14 13 13 13 14 15 11 9 9 6 3 4 7 6 5 7 9 9 8 6 3 5 9 11 14 16 14 14 13 10 11 12 12 10 10 10 7 7 10 11 10 9 9 11 10 7 7 8 8 10 9 10 11 11 12 11 15 17 17 14 15 16 10 9 14 16 19 18 14 15 14 12 11 10 11 11 10 10 9 9
15 15 15 15 15 15 14 14 14 14 14 14 15 13 9 6 3 2 1 4 6 5 8 9 5 7 9 6 3 7 10 9 10 14 14 14 13 9 10 12 11 11 11 10 8 9 11 10 8 9 9 8 9 9 9 9 9 8 9 10 11 13 13 10 12 15 17 16 16 17 13 13 11 6 12 15 14 14 13 12 12 11 10 11 10 10 10 10
16 16 15 15 15 15 14 15 15 14 15 14 13 11 7 4 1 2 4 4 6 7 10 8 5 5 7 9 9 5 8 8 8 12 13 13 12 9 11 11 10 11 11 9 10 11 10 9 8 8 8 8 9 10 9 9 9 9 10 9 11 13 14 13 11 13 18 19 16 15 14 17 14 7 11 12 13 13 13 13 12 12 11 12 11 11 11 11
16 16 16 16 15 15 15 15 15 15 16 13 10 10 6 2 3 6 8 8 7 6 6 5 9 6 4 7 9 3 5 8 8 11 13 13 11 11 13 12 10 12 11 8 10 12 9 8 9 8 8 10 11 12 12 12 12 13 12 11 12 12 11 14 12 11 15 17 15 14 13 16 18 11 11 12 12 13 13 13 11 12 12 12 12 11 12 12
16 16 16 16 16 16 15 15 15 15 15 13 9 8 5 4 4 4 7 10 11 12 13 8 12 12 9 6 8 7 7 8 9 12 14 13 12 13 13 11 11 11 11 9 10 12 10 8 9 9 10 12 12 15 14 10 10 10 11 11 13 12 9 13 13 9 10 12 13 16 15 14 17 16 12 12 12 13 14 14 12 12 12 12 13 13 13 13
17 17 17 16 16 16 16 16 16 17 16 12 8 7 6 7 7 3 2 9 15 19 19 16 14 15 14 10 6 7 8 9 12 12 15 14 13 13 11 11 12 10 11 12 10 9 9 9 10 11 13 12 13 16 13 7 8 8 9 8 11 12 9 14 14 10 10 9 9 15 16 15 15 15 13 12 13 13 13 14 13 13 13 12 14 15 14 11
17 17 17 17 17 17 17 16 16 17 16 9 8 10 8 8 7 6 7 10 14 17 19 18 18 16 14 13 9 9 9 11 13 13 16 16 14 12 11 12 12 10 12 13 10 8 9 9 11 13 13 9 8 11 10 7 8 9 8 7 8 9 9 12 11 9 8 7 8 12 14 14 14 13 13 13 13 12 13 15 14 14 13 13 13 13 13 11
17 17 17 17 17 18 17 16 16 17 15 9 11 12 9 7 7 8 8 8 13 16 16 16 17 15 14 14 12 12 12 12 13 14 18 16 14 12 11 12 13 11 13 12 10 8 8 10 15 13 8 6 5 6 8 8 8 9 8 8 8 8 10 9 9 9 8 7 9 12 10 11 11 11 14 14 12 11 13 16 15 14 15 14 13 11 10 12
18 17 17 17 19 18 16 17 17 14 12 12 14 15 11 8 8 10 8 8 12 14 13 11 11 13 13 11 12 15 13 11 11 13 19 17 13 11 11 12 14 12 12 13 12 11 10 9 12 10 8 9 10 8 10 9 8 10 12 11 9 10 13 8 6 10 10 8 9 10 7 7 10 13 14 11 11 12 13 15 15 15 16 12 12 12 11 14
18 17 18 18 19 17 16 16 12 7 8 11 15 14 10 7 7 9 7 7 9 8 9 8 6 8 9 9 11 13 13 11 12 12 19 18 14 11 10 9 11 11 12 14 13 12 10 4 7 8 8 11 12 10 12 10 8 10 13 14 14 12 12 8 6 7 7 8 11 11 8 7 11 15 14 11 12 14 13 13 14 13 13 12 10 11 13 14
18 18 18 18 18 18 14 9 3 3 8 10 9 4 4 5 6 8 6 6 7 4 7 8 6 5 8 10 11 11 12 12 13 13 18 19 17 11 9 7 8 10 11 12 10 9 6 7 7 9 9 12 12 10 12 12 9 8 11 16 18 13 10 11 10 8 7 5 9 13 10 7 9 12 13 12 13 15 13 14 16 13 11 10 8 8 10 10
18 18 18 17 17 15 9 6 7 9 10 4 1 2 2 5 6 6 5 5 7 4 7 6 4 5 8 10 13 12 8 9 13 14 17 18 17 12 10 9 8 9 7 7 8 7 6 7 8 10 10 11 11 8 11 13 10 8 9 16 18 14 11 11 9 8 7 2 5 12 11 8 6 7 11 13 13 15 15 15 17 15 12 11 9 9 10 11
19 18 18 17 16 11 9 11 12 11 8 4 5 5 5 7 6 5 5 5 3 3 4 4 5 5 6 9 16 13 3 7 13 13 16 18 17 12 11 11 10 9 8 7 6 7 9 10 9 11 10 9 9 10 12 13 11 11 8 12 14 15 13 11 8 8 9 6 5 10 11 9 6 6 9 12 13 15 17 17 17 16 15 15 14 13 13 14
20 18 18 17 16 10 9 12 11 12 11 8 8 8 7 7 5 4 5 5 3 2 2 3 5 7 8 9 16 14 5 7 10 11 16 17 16 12 10 11 11 10 11 10 8 5 7 11 11 12 10 9 12 12 10 13 12 9 5 7 11 14 14 11 9 8 9 8 8 9 11 9 6 7 8 9 11 13 14 14 15 15 15 14 14 14 14 13
21 20 18 16 13 7 6 12 14 13 11 9 9 9 8 7 4 6 7 4 4 3 4 4 5 8 11 11 13 14 11 8 5 9 15 14 15 14 9 8 10 10 11 12 13 7 2 4 7 10 12 11 9 6 5 10 12 5 4 9 10 11 11 9 8 8 8 8 9 10 11 9 5 7 8 8 7 9 12 12 13 14 15 13 11 11 11 9
23 21 17 13 9 6 6 7 6 6 6 6 9 8 7 6 5 7 7 2 5 5 6 6 6 9 12 13 11 13 14 9 7 11 12 11 13 13 9 7 7 8 8 9 12 11 5 6 7 10 13 8 2 5 6 10 10 6 7 9 8 8 8 7 7 8 8 7 10 11 11 10 6 2 5 7 6 2 4 9 10 8 10 13 12 10 10 10
23 20 15 12 11 10 11 7 5 5 5 7 8 6 6 6 7 8 6 3 3 4 5 6 7 9 13 13 11 14 14 9 11 13 11 10 11 11 10 9 7 8 8 8 9 10 9 10 10 11 13 8 6 7 8 9 9 8 9 9 8 7 7 8 8 8 8 6 7 9 10 9 4 2 3 8 10 6 5 4 6 4 4 7 10 9 9 9
20 16 11 9 9 11 13 10 8 8 7 7 7 6 6 7 8 8 9 7 2 3 1 3 6 8 10 11 10 14 14 10 13 13 13 12 11 11 13 13 11 10 7 7 9 9 8 9 12 13 10 10 11 8 7 8 9 10 10 9 8 7 6 8 8 8 8 6 6 7 7 8 6 6 5 8 9 8 9 7 5 3 1 2 8 11 9 8
17 12 6 4 5 9 10 8 7 7 6 7 6 6 9 9 8 8 10 11 7 3 3 4 6 8 9 10 10 12 12 10 14 14 13 13 10 10 13 14 16 12 7 7 8 8 9 8 12 13 9 12 14 12 7 7 9 10 10 9 7 6 6 7 6 6 6 5 7 8 6 6 5 6 6 8 9 8 9 8 6 5 5 6 8 12 11 10
11 5 5 6 6 8 10 8 7 6 6 7 7 7 10 9 7 9 9 10 11 9 8 7 7 9 10 10 10 12 13 10 13 14 12 13 11 9 11 12 16 14 8 7 6 7 10 7 11 15 12 13 16 14 10 8 7 9 9 9 8 7 5 4 1 1 2 3 5 7 4 2 4 6 6 7 9 9 8 9 8 7 7 7 7 9 10 8
4 2 6 8 6 4 7 8 7 7 7 7 8 9 9 8 8 9 7 6 9 10 10 9 9 10 9 8 9 13 14 11 12 13 10 13 13 12 12 11 13 15 10 7 4 6 8 5 9 16 13 11 14 14 12 10 6 6 8 9 7 6 6 6 3 3 1 4 4 6 5 4 7 7 8 9 9 9 8 8 7 7 7 8 9 9 9 8
3 5 5 5 2 3 6 7 8 9 7 7 9 9 8 9 10 11 7 5 7 8 9 9 8 9 10 8 8 12 13 12 12 11 8 11 12 13 15 12 13 15 13 9 4 4 7 5 7 13 12 11 10 9 11 11 8 5 7 7 5 5 5 5 4 4 6 7 6 6 7 7 7 6 8 10 10 8 7 8 8 7 8 9 10 10 11 12
7 7 5 0 4 6 4 7 10 9 6 7 10 10 9 10 11 13 9 5 7 9 9 9 7 8 10 9 6 7 10 11 10 9 9 11 9 11 15 13 14 16 15 11 6 4 6 6 7 12 13 12 9 7 9 9 11 9 5 5 6 5 5 5 4 4 6 7 6 7 9 7 4 6 10 10 9 9 8 9 8 7 8 9 10 12 12 12
9 7 3 2 4 4 1 7 9 8 6 8 9 8 9 12 13 13 9 6 8 10 9 9 9 7 8 9 6 4 9 11 10 8 9 9 5 5 8 7 11 16 16 14 8 4 5 5 4 8 10 10 9 8 9 8 10 10 7 6 6 5 5 5 4 5 6 6 6 7 8 3 3 2 6 8 8 7 8 9 9 9 9 9 10 11 11 10
7 5 1 3 3 3 2 6 7 7 7 9 8 8 9 12 12 12 10 8 8 8 8 10 10 7 7 10 8 4 7 10 8 6 6 5 5 3 5 6 7 12 14 16 12 7 6 4 3 5 8 8 6 8 10 10 9 10 8 7 6 5 4 4 5 5 6 6 6 7 6 4 6 6 6 8 6 5 8 9 9 10 11 11 11 10 10 9
6 4 2 5 2 1 2 5 6 6 7 8 8 11 10 7 8 10 10 10 9 9 10 12 10 8 8 9 8 6 6 7 6 5 4 4 6 5 2 6 7 6 8 12 11 7 6 6 6 7 6 7 8 10 13 11 8 7 9 9 9 7 5 5 7 7 6 6 5 6 4 4 4 4 5 5 4 5 8 10 9 10 12 12 11 10 10 10
6 2 4 7 3 4 5 5 6 5 7 7 7 8 5 3 6 11 10 9 9 9 10 10 10 9 9 8 7 8 8 6 7 7 3 2 4 3 4 3 5 3 4 8 8 3 2 4 6 7 7 7 8 7 7 7 7 8 9 8 9 10 8 7 7 6 7 7 6 7 4 3 3 4 4 3 4 7 9 9 10 10 10 10 10 11 10 10
3 2 4 7 4 5 6 6 6 5 7 7 6 7 5 3 7 11 11 10 9 9 10 9 9 10 10 9 8 9 8 7 8 7 4 2 1 0 5 4 4 5 5 8 6 0 1 4 5 7 7 7 6 4 5 6 7 9 8 7 8 9 9 9 8 7 6 7 7 8 5 3 2 2 2 3 6 9 9 9 10 10 9 10 11 12 12 11
3 1 3 7 7 4 5 4 4 4 5 5 5 7 8 7 8 9 10 10 8 7 8 8 9 9 9 8 8 9 8 6 7 7 4 4 4 3 3 3 0 0 1 1 1 0 3 5 6 7 7 7 8 7 7 7 7 8 8 9 10 12 11 9 7 6 6 7 8 7 2 4 3 2 3 5 9 10 9 9 11 9 8 9 10 11 11 12
3 2 1 5 7 3 1 3 4 4 5 5 5 6 7 6 6 7 8 7 6 6 7 7 7 7 7 8 7 9 9 7 6 6 4 4 7 5 5 4 3 0 6 7 6 1 2 1 3 6 5 6 7 4 3 4 5 7 10 10 9 11 12 8 5 6 7 8 10 7 2 6 5 6 6 6 9 10 9 9 10 9 9 9 9 10 10 11
3 2 2 2 3 3 3 3 4 4 3 4 3 4 5 6 4 4 6 5 5 7 7 7 7 6 8 10 8 9 10 9 8 5 6 5 5 5 5 9 8 5 8 8 6 3 0 1 1 2 1 1 2 2 4 6 7 8 11 11 7 7 8 7 7 8 5 6 8 5 10 12 9 9 8 7 9 9 8 8 8 8 9 9 9 10 11 12
2 2 4 4 2 2 3 4 6 4 3 2 2 3 5 6 3 1 3 4 4 6 6 6 7 7 8 9 8 9 10 9 9 8 8 6 2 4 3 5 6 7 9 7 5 2 1 2 2 1 1 4 7 7 8 8 8 6 5 4 4 5 6 7 8 6 4 4 4 6 16 15 11 10 9 9 9 8 7 8 8 8 9 9 10 12 14 14
2 2 3 3 3 4 4 6 7 5 3 2 1 3 3 3 2 1 2 3 2 4 4 4 7 7 8 8 7 7 8 8 7 5 5 6 2 3 4 5 6 8 9 9 9 6 5 6 5 4 3 3 7 9 11 10 6 3 3 2 2 3 4 4 2 3 3 2 2 9 14 14 11 10 8 8 9 9 8 7 8 8 9 10 11 13 15 15
1 2 3 1 2 5 5 5 6 5 5 5 4 4 5 5 5 5 4 3 2 5 5 2 4 5 4 7 7 3 2 4 2 2 3 5 3 2 4 4 6 9 10 8 7 8 6 6 8 8 5 4 5 6 7 8 6 4 4 4 2 2 3 4 5 7 7 8 10 13 15 14 11 9 9 8 7 8 8 7 8 10 10 11 12 14 15 15
3 3 3 1 3 5 4 4 4 4 5 6 5 6 7 7 7 7 7 6 5 7 8 5 4 5 5 3 1 4 6 6 3 4 5 5 2 1 1 1 2 7 10 7 7 7 4 3 7 8 6 7 8 7 7 8 9 7 4 5 4 5 7 7 7 8 10 12 13 15 15 12 8 9 11 9 8 9 9 9 10 10 10 12 13 14 14 14
5 3 5 2 2 3 2 4 4 3 6 7 5 7 7 7 10 9 5 8 8 7 9 9 7 5 6 9 9 9 8 7 5 5 5 4 3 3 2 2 1 3 7 6 5 5 4 3 6 7 7 6 9 10 9 9 9 10 8 4 1 4 7 7 8 8 7 10 13 11 9 8 8 9 11 11 11 11 11 11 10 9 11 12 13 14 14 14
5 1 4 4 2 4 3 4 5 4 4 4 3 5 6 7 11 9 4 5 9 10 9 11 10 5 5 9 11 10 8 7 5 4 4 3 2 2 2 2 2 2 3 4 4 4 5 5 5 7 7 6 9 11 9 8 8 8 7 5 4 7 6 7 8 10 8 4 7 6 7 9 10 11 12 13 13 11 10 9 9 10 11 12 12 13 13 13
Wind_Direction
351 345 339 331 325 319 316 314 310 308 306 306 306 303 302 304 306 306 306 306 308 306 306 306 304 304 303 303 299 301 306 299 291 268 245 248 243 231 242 246 220 191 172 181 189 187 192 202 204 201 209 209 214 231 210 207 226 224 227 238 240 238 238 247 236 214 275 57 85 63 159 256 247 162 201 221 224 198 159 163 114 108 93 100 118 134 141 142
354 350 343 336 330 324 320 316 312 309 305 306 304 301 300 302 304 303 305 306 306 306 306 307 306 304 303 302 301 307 308 293 280 268 254 249 242 232 233 230 208 184 175 189 195 190 192 196 197 196 206 213 203 219 216 199 215 226 228 233 236 243 243 259 293 323 325 18 48 49 177 246 299 156 172 215 204 166 157 160 135 115 113 125 132 138 141 147
354 351 347 342 337 330 325 319 314 311 306 305 303 301 299 299 301 301 302 304 305 305 302 305 306 302 301 302 307 318 309 291 278 265 251 244 235 230 221 206 197 184 181 194 198 193 199 197 194 196 205 217 204 210 216 193 204 224 231 237 233 242 258 300 317 297 315 342 308 324 249 233 263 247 170 204 192 160 169 175 165 147 141 143 138 141 145 155
354 351 349 345 341 336 330 325 318 312 307 303 300 300 300 298 298 298 301 303 304 304 302 306 306 304 305 304 313 326 304 284 275 136 125 207 218 211 207 197 189 185 189 205 206 200 207 203 196 202 212 221 209 209 215 199 203 220 226 241 241 241 267 278 232 254 263 305 287 301 269 232 208 235 199 195 188 175 180 181 172 158 154 146 139 145 150 158
352 350 350 346 343 341 335 330 322 315 310 304 300 299 299 298 297 297 298 300 301 302 304 305 305 308 305 303 318 315 293 277 98 99 110 35 196 193 197 193 184 184 197 217 213 205 211 210 201 206 221 227 216 211 215 212 210 225 229 238 252 261 287 272 231 253 271 262 259 254 250 262 295 219 218 208 194 187 187 179 160 147 156 155 145 146 151 162
350 349 348 345 344 341 339 335 328 322 314 307 304 301 299 297 297 297 297 299 299 299 302 305 306 307 302 305 310 291 275 283 78 110 120 3 187 186 190 187 180 184 203 222 214 208 212 213 207 207 220 229 226 219 215 215 209 229 238 232 250 262 270 267 231 139 242 249 235 240 267 327 281 228 217 230 199 163 178 161 133 134 152 165 151 149 153 164
348 349 346 345 344 341 341 338 335 330 320 312 307 303 299 297 296 296 296 297 298 299 300 303 306 304 308 310 293 262 253 272 80 122 130 328 171 177 183 178 175 187 210 220 210 208 211 213 212 211 219 225 230 225 218 221 214 225 244 235 239 244 243 254 258 198 219 242 241 256 291 273 251 237 195 228 206 117 125 140 131 126 145 173 156 152 157 164
347 346 345 345 343 342 342 338 338 335 327 319 310 305 299 296 295 294 292 292 296 298 298 302 305 303 315 315 289 251 244 256 105 114 271 205 167 170 169 171 180 195 213 216 208 206 208 213 214 213 221 224 233 230 219 226 222 222 242 246 241 236 238 244 249 246 230 234 241 247 266 245 239 255 216 224 200 148 158 180 158 131 150 179 157 156 162 164
346 344 344 344 343 342 341 340 339 336 334 323 312 307 300 295 290 289 288 290 293 293 297 301 301 303 310 300 284 272 251 92 100 141 237 177 166 166 167 175 187 200 212 213 212 210 209 215 215 218 230 230 235 234 222 228 223 217 235 245 245 235 234 239 238 241 235 230 236 235 243 239 234 260 258 230 193 158 174 187 173 150 164 170 150 163 168 163
345 345 344 343 343 342 341 340 338 336 336 328 317 305 299 295 288 287 286 288 291 290 295 298 298 303 294 277 271 276 104 92 107 140 166 167 162 167 178 183 187 201 214 211 213 214 214 220 216 222 239 245 246 238 225 228 227 224 236 241 242 238 229 233 235 232 232 228 228 233 236 233 223 221 240 222 178 158 180 184 181 176 168 156 156 171 174 167
344 344 344 344 342 341 340 339 337 335 335 331 321 305 297 291 285 286 284 284 286 285 289 294 296 288 282 277 269 276 91 103 141 136 159 167 166 177 189 188 191 207 216 212 215 218 224 232 232 229 232 246 252 243 232 229 234 245 254 250 241 238 233 233 236 230 229 227 221 230 238 235 216 206 235 218 166 172 186 178 186 191 164 152 168 174 182 177
343 343 343 343 341 340 338 337 336 333 332 330 321 309 299 293 288 285 280 281 285 283 280 288 296 282 283 278 256 258 55 174 185 148 167 173 179 188 193 197 200 212 221 220 217 221 231 239 247 239 222 236 242 241 240 228 231 243 246 257 244 234 235 231 233 228 224 225 214 219 231 235 218 211 235 212 157 184 191 183 192 195 171 157 170 184 187 177
342 342 342 342 340 339 337 336 335 331 330 328 323 312 299 294 290 286 281 276 281 283 278 283 292 278 277 276 257 245 240 223 189 177 176 182 193 196 203 212 211 218 228 232 225 221 229 236 242 241 237 247 236 221 278 229 224 242 237 243 248 235 232 223 224 224 220 221 211 212 222 228 217 212 229 207 165 199 199 195 202 195 183 165 169 186 181 169
341 341 341 340 339 338 336 334 333 330 327 326 324 314 298 292 287 283 279 272 275 271 270 278 278 269 257 266 270 228 215 222 195 199 191 190 197 197 207 214 217 222 231 239 237 221 218 228 237 241 240 246 250 156 235 232 216 237 235 232 242 242 233 212 210 215 214 212 201 209 226 230 219 205 215 208 180 201 207 201 208 201 186 169 171 179 171 165
339 339 339 337 337 336 335 333 331 329 325 323 322 315 300 287 283 280 274 271 278 273 269 271 254 251 260 262 254 205 213 224 212 210 199 195 200 201 203 205 212 216 222 232 239 224 210 219 227 237 231 230 258 255 216 226 214 223 230 228 225 234 247 215 198 203 208 200 189 207 233 236 235 213 202 200 185 196 210 203 204 204 185 175 176 171 167 166
338 337 336 335 335 334 333 332 330 327 323 322 321 317 307 296 289 279 268 249 268 274 249 252 234 230 273 284 193 181 215 214 210 206 196 199 206 206 195 194 203 206 211 215 222 220 209 216 219 231 233 215 232 243 220 220 213 213 220 233 223 217 244 223 182 192 207 201 190 207 232 231 247 235 193 180 188 200 209 205 200 204 188 178 175 168 173 169
337 336 335 334 332 331 331 329 329 326 322 324 326 320 305 309 311 269 286 240 255 256 232 259 266 229 261 291 242 217 205 190 190 191 189 199 210 204 182 187 197 196 200 203 208 210 203 211 216 226 240 223 215 224 228 222 212 212 211 228 233 219 232 221 177 183 205 211 202 203 223 238 240 216 165 167 190 204 210 209 200 201 189 177 175 171 177 173
336 335 333 332 330 329 328 326 327 324 322 328 336 330 312 306 301 256 271 233 225 230 232 256 273 247 247 242 244 219 175 168 171 181 183 191 207 201 183 190 191 187 194 196 201 202 193 201 210 217 226 221 216 215 223 225 214 215 212 217 232 226 224 224 201 180 198 212 212 200 209 239 237 164 152 181 203 208 212 212 199 196 190 178 179 178 179 177
335 334 332 331 329 327 326 325 326 322 323 335 341 334 325 287 243 245 238 217 198 224 251 208 197 250 311 224 227 210 150 156 164 182 181 181 198 197 189 194 188 187 196 190 191 196 190 196 208 216 216 210 215 217 219 232 231 222 217 216 227 227 215 230 226 174 190 208 208 211 208 223 237 215 178 184 203 213 213 213 201 193 191 184 186 184 180 180
333 332 331 330 327 327 324 322 322 318 323 336 328 301 279 262 261 228 210 216 216 240 275 254 211 249 283 244 221 197 161 165 190 193 181 179 187 188 188 191 188 194 204 188 180 190 191 206 213 214 221 209 210 225 229 255 275 251 229 218 225 232 210 223 228 162 181 214 200 215 225 215 228 233 210 185 193 209 213 213 204 194 194 191 194 189 180 183
332 330 330 328 326 324 321 319 317 315 321 326 302 268 273 307 318 344 290 247 235 237 257 260 245 251 260 261 238 196 182 194 209 194 177 181 186 184 181 188 191 197 208 190 171 184 196 217 221 214 229 221 207 222 233 270 297 272 250 231 222 230 217 213 212 161 173 225 207 210 227 225 222 228 227 207 191 201 213 215 204 198 201 196 196 192 177 179
330 329 327 325 324 322 319 318 314 314 319 308 264 252 275 321 339 338 318 288 270 257 252 249 249 251 251 253 237 218 225 207 202 191 175 181 191 187 176 188 200 194 202 193 170 188 206 226 229 215 225 228 203 214 230 245 251 251 255 251 228 223 223 209 187 152 169 211 224 216 221 229 225 222 231 223 197 195 212 220 208 196 208 206 194 190 175 177
328 328 325 324 322 321 319 316 314 310 301 266 238 244 269 321 339 317 295 283 286 276 258 241 238 239 234 235 214 206 228 213 202 188 173 185 199 197 186 191 207 200 196 197 185 198 209 218 225 214 197 199 200 208 226 234 232 240 243 241 238 215 218 213 169 163 189 203 234 239 230 228 224 221 230 224 198 194 210 220 210 194 211 212 186 179 176 192
327 326 324 324 320 320 323 317 307 293 268 241 242 254 274 305 319 316 300 272 279 276 259 236 229 235 227 221 198 196 218 217 213 184 170 192 203 201 206 199 212 210 193 199 203 221 230 208 203 191 162 189 211 207 217 227 219 227 235 238 240 216 217 228 177 180 195 206 235 253 250 226 222 223 224 213 199 211 213 211 211 200 203 200 176 172 184 210
325 324 322 324 320 322 326 314 296 266 242 240 252 257 261 279 309 316 303 272 271 256 231 207 208 229 210 193 183 195 214 216 226 193 169 196 207 197 210 206 220 216 191 200 212 231 238 158 140 173 177 199 212 206 209 222 223 218 222 236 247 235 217 203 162 179 203 210 211 222 241 229 221 221 215 201 204 216 209 200 212 207 190 176 172 176 188 211
324 323 322 322 320 325 325 310 299 292 272 254 256 258 237 270 315 309 285 272 272 221 172 179 187 179 174 183 178 191 212 209 222 199 168 195 212 205 215 203 216 227 201 197 214 241 223 138 155 204 201 203 214 212 205 211 233 230 202 218 243 255 235 205 182 193 224 228 190 198 227 243 221 217 210 201 202 207 202 200 209 206 186 168 170 184 192 210
322 320 321 319 319 326 320 312 326 303 281 263 354 348 287 298 317 295 263 268 265 196 149 166 170 156 173 185 176 189 217 187 198 197 172 191 209 211 227 208 199 232 225 197 207 232 215 170 182 203 204 210 218 218 205 202 228 244 197 199 224 241 240 229 215 216 228 236 176 195 224 252 234 216 204 192 195 200 197 203 207 198 185 172 175 198 205 213
320 319 319 314 312 308 283 292 305 280 274 360 357 305 313 318 301 257 252 275 266 161 154 134 109 157 184 176 182 200 242 152 178 185 173 190 202 203 227 223 208 216 217 215 208 192 201 209 199 196 207 214 218 221 206 198 223 248 217 188 209 225 230 234 231 233 234 234 219 206 219 242 233 208 192 183 194 199 194 201 205 194 185 181 180 189 202 211
319 318 315 313 313 300 262 264 273 269 281 319 316 301 311 305 279 241 248 264 258 190 163 130 132 183 186 173 193 210 210 173 184 172 168 189 205 211 231 232 224 214 203 218 230 186 185 212 207 199 210 215 219 221 197 192 216 251 245 200 208 218 221 227 228 232 233 234 240 219 211 230 227 185 180 188 199 197 190 196 203 194 181 178 179 180 194 206
320 316 314 315 314 305 261 243 249 270 286 299 306 303 293 274 245 235 231 238 259 211 144 160 180 181 179 179 196 210 211 206 189 164 169 184 200 215 237 235 235 231 205 211 234 234 160 210 218 207 216 224 217 194 177 210 213 207 229 222 213 213 217 224 230 236 233 228 239 227 210 225 222 172 179 195 195 193 192 191 202 196 170 169 189 183 185 194
321 318 313 303 287 285 278 244 243 282 286 303 310 290 265 241 225 238 225 244 284 212 168 189 183 165 181 192 192 200 205 196 168 171 176 180 190 204 223 223 232 235 210 205 230 233 211 208 217 216 226 246 236 161 191 231 228 210 220 217 204 203 210 214 217 229 231 225 235 225 206 218 227 178 182 164 121 70 213 184 182 182 152 160 182 185 184 182
322 317 305 281 260 251 258 270 336 326 290 309 306 264 232 219 224 238 225 239 273 191 185 200 186 179 193 202 194 190 198 185 172 184 184 183 190 195 208 210 198 210 212 204 212 218 216 208 199 206 219 233 235 200 187 212 223 220 220 213 205 197 198 211 209 213 221 223 234 219 200 210 204 93 96 113 102 63 41 107 134 114 93 137 161 186 196 175
323 312 294 272 247 231 242 270 305 304 291 292 278 236 225 228 226 227 227 235 219 112 228 227 208 206 199 207 203 190 200 190 176 189 191 192 198 195 207 214 200 207 222 209 202 200 206 207 199 201 201 205 227 222 179 188 204 209 215 213 208 196 196 216 213 211 217 206 209 210 203 211 180 131 108 99 101 96 82 83 102 100 46 144 167 184 191 182
320 300 269 235 234 227 237 264 276 283 283 259 240 217 223 233 232 227 230 240 242 219 233 231 226 226 213 223 216 194 206 197 179 190 191 192 204 198 204 212 207 214 227 219 214 202 204 206 197 203 190 182 215 238 222 199 193 203 224 225 215 209 209 224 225 223 227 201 186 189 198 220 192 135 113 108 105 101 98 100 113 142 183 195 181 168 167 189
321 290 203 199 233 231 235 253 255 257 255 229 221 218 219 225 229 232 234 243 250 241 224 219 230 236 225 223 220 206 213 206 186 195 198 194 204 204 202 210 210 213 217 215 219 213 221 219 190 202 203 182 201 230 242 235 206 198 221 228 221 219 217 235 244 88 295 253 193 186 191 181 140 130 134 127 113 104 101 108 123 148 162 158 140 132 143 168
316 206 189 208 230 232 240 251 235 225 231 220 218 220 221 227 228 236 247 252 263 260 240 225 224 236 235 221 222 215 211 211 197 197 204 204 204 201 202 207 207 213 220 215 207 208 226 235 181 189 204 201 202 214 223 236 231 196 214 227 222 224 234 243 217 136 207 258 216 198 196 141 132 150 157 142 118 107 105 106 115 121 120 114 109 119 134 132
275 216 208 216 277 312 265 240 211 209 225 224 224 227 229 233 233 244 265 288 294 283 261 246 228 230 237 225 219 212 205 208 206 200 207 213 208 201 203 204 200 211 227 228 231 230 232 242 172 175 200 210 213 233 231 235 248 227 215 221 215 226 250 261 244 191 202 231 223 206 206 187 174 177 167 148 125 120 121 110 108 107 100 94 91 101 112 112
280 243 228 211 358 328 269 207 197 206 219 223 230 240 244 244 241 243 254 286 291 268 251 254 243 229 236 232 220 217 214 210 204 207 213 208 200 198 204 202 193 203 217 222 229 230 232 238 175 178 207 203 193 242 243 231 243 254 267 248 224 225 229 228 237 225 213 228 229 210 208 212 205 184 176 156 121 121 129 118 115 113 101 93 88 87 90 100
266 245 219 60 17 356 194 184 198 212 218 222 227 234 243 252 257 253 251 263 276 267 254 256 252 242 247 245 239 244 236 219 203 214 220 199 185 224 237 222 194 195 202 210 220 208 224 256 190 184 219 206 180 216 233 217 221 238 270 267 239 243 241 223 224 234 228 227 230 221 207 186 35 68 145 128 107 116 124 118 117 111 99 93 90 85 81 86
257 242 95 51 29 42 112 184 207 217 217 223 233 235 237 245 254 259 255 255 267 267 260 263 258 245 249 248 239 235 245 233 216 232 242 198 182 235 289 284 227 203 199 205 216 205 196 234 231 211 234 225 193 207 222 221 212 210 228 239 234 237 242 239 234 236 241 231 222 229 209 125 51 22 62 88 99 113 114 113 110 100 89 80 75 79 83 79
267 252 61 37 19 166 211 222 219 222 222 226 236 242 248 255 258 259 252 244 253 260 263 273 269 251 248 250 238 224 239 240 222 233 268 247 215 196 234 290 263 217 204 208 214 213 199 205 218 219 226 231 230 221 216 225 236 220 215 221 227 228 226 235 233 226 240 248 241 237 209 100 54 360 30 68 109 116 110 111 105 92 84 79 76 77 81 75
278 281 45 27 348 227 249 255 232 228 232 233 238 244 263 321 270 264 261 241 237 246 254 261 264 260 260 263 261 248 242 243 230 218 219 297 270 190 160 250 249 206 218 219 213 240 253 218 224 227 222 224 240 242 224 235 264 256 239 229 223 224 224 232 240 236 236 244 255 250 220 106 44 351 17 48 105 107 104 101 97 91 84 87 91 85 82 81
297 26 65 35 358 241 255 269 245 241 243 248 270 275 282 293 255 254 259 249 235 231 235 238 244 250 250 253 268 264 249 253 255 230 175 125 317 160 119 136 200 202 225 227 213 34 280 222 233 241 232 218 212 227 230 235 252 255 251 247 241 236 231 232 243 253 251 246 248 249 224 130 87 1 29 78 99 99 100 97 93 92 90 93 95 90 89 90
343 9 105 45 15 275 261 293 283 275 272 278 296 282 272 274 267 260 257 252 247 241 241 242 240 242 247 252 260 263 258 262 264 253 212 158 171 200 131 99 306 166 100 315 347 59 225 226 232 232 232 225 209 201 208 214 226 238 235 239 249 249 246 249 245 241 251 251 246 252 228 111 120 110 85 102 108 101 98 99 95 97 100 96 92 90 92 92
311 262 154 49 23 346 323 341 315 299 297 300 295 281 271 264 262 273 277 270 269 274 263 259 261 258 260 260 253 256 261 262 265 274 269 183 152 160 179 186 255 34 89 61 39 30 225 258 268 251 240 236 228 219 239 239 237 238 231 235 251 252 253 263 254 237 240 239 244 250 132 117 132 122 99 102 114 106 98 102 103 103 104 99 96 94 92 89
319 334 343 26 31 9 30 19 334 308 295 291 286 290 284 264 234 241 265 261 261 272 266 265 276 267 257 260 255 251 250 244 246 262 269 237 147 129 175 189 206 182 121 95 67 56 57 101 359 316 345 324 312 1 347 310 280 249 227 225 236 248 258 267 253 249 256 255 255 216 140 136 138 130 116 110 115 109 103 108 107 107 106 101 100 95 89 84
336 359 347 348 359 352 10 21 3 343 307 273 288 318 296 275 259 213 258 257 254 272 269 264 272 259 250 256 253 252 250 240 239 246 257 260 126 106 161 182 178 145 129 150 171 157 256 207 138 53 353 328 336 350 352 330 299 274 246 232 240 239 239 243 249 268 298 292 280 130 130 134 135 132 127 122 121 118 114 114 114 116 114 109 104 95 88 85
359 25 27 351 336 359 15 15 12 8 348 317 336 354 343 319 344 20 301 275 259 291 287 267 273 264 248 248 244 246 251 244 241 250 262 261 222 155 188 178 150 145 159 186 189 190 229 225 204 211 229 299 313 314 320 322 322 350 28 16 291 259 232 221 251 327 327 271 150 122 120 119 122 127 122 121 125 123 118 117 119 118 115 114 107 95 87 84
19 55 65 51 359 27 39 19 15 37 18 360 24 22 9 23 39 35 4 336 11 3 348 305 287 296 265 248 241 228 267 265 237 55 352 298 272 210 204 178 148 167 185 189 183 196 226 221 210 217 214 216 249 265 279 290 303 335 15 33 51 74 77 83 73 67 79 94 109 117 112 106 116 129 123 118 123 124 122 121 120 117 114 109 99 91 86 83
12 12 355 88 67 44 63 41 15 59 41 12 20 16 7 17 15 14 23 26 30 15 5 3 339 348 30 41 34 64 40 9 27 49 360 331 330 330 255 159 146 185 190 183 174 188 211 200 192 207 217 210 215 225 232 243 257 268 309 4 37 70 69 65 64 71 90 100 103 106 102 103 123 136 129 127 127 128 129 124 119 114 107 100 93 89 87 83
6 4 323 325 43 351 11 55 32 48 45 31 24 9 13 17 349 340 20 35 28 24 11 1 341 341 52 55 41 42 33 7 3 4 344 334 333 333 353 26 328 226 199 184 162 169 203 194 174 198 226 211 196 206 212 215 231 237 239 256 321 64 61 62 56 49 80 118 123 116 108 119 138 140 136 134 130 128 125 120 115 107 97 93 88 86 82 77
346 335 295 304 17 337 331 53 57 48 42 43 42 17 19 18 353 343 6 20 15 21 16 1 346 343 58 46 22 10 359 341 334 333 322 313 310 328 16 47 352 311 241 194 166 177 213 220 196 206 226 217 196 196 194 198 217 230 232 219 150 115 97 84 65 40 37 104 142 130 114 126 139 146 143 135 127 120 111 104 100 95 90 84 81 80 78 73